Location: Litvinovka
(48.6667°N, 34.3500°E)
Time: 16:02:31
(UTC+00:00)

SPOT 5 - Pass Details

Date: 18 September 2020
Orbit: 623 x 814 km, 98.3° (Epoch: 22 October)

Event Time Altitude Azimuth Distance (km) Brightness Sun altitude
Exits shadow 19:00:54 46° 17° (NNE) 1,052 3.8 -29.7°
Drops below altitude 10° 19:04:49 10° 352° (N) 2,391 6.2 -30.1°
Sets 19:07:13 0° 349° (N) 3,340 7.1 -30.4°
